Location: Ermatingen
(47.6706°N, 9.0857°E)
Time: 05:46:06
(UTC+00:00)

SJ 16-02 - Pass Details

Date: 18 September 2020
Orbit: 606 x 616 km, 75.0° (Epoch: 27 October)

Event Time Altitude Azimuth Distance (km) Brightness Sun altitude
Rises 17:57:38 0° 205° (SSW) 2,853 5.0 -5.6°
Reaches altitude 10° 17:59:52 10° 208° (SSW) 1,953 4.2 -6.0°
Maximum altitude 18:04:12 69° 292° (WNW) 652 1.7 -6.7°
Drops below altitude 10° 18:08:35 10° 17° (NNE) 1,967 3.9 -7.4°
Sets 18:10:51 0° 20° (NNE) 2,875 4.7 -7.8°
